When you browse on this site, cookies collect data to enhance your experience and personalize the content and advertising you see.
Visit our Privacy Policy to learn more. By continuing to use the site, you agree to this use of cookies and data.
  • In Romania
  • List of Countries
  • For 7 days
  • Water Temperature
  • Satellite Maps
  • Weather Map
  • Weather Widgets
  • user-avatar
    Login

    Hourly Weather Newark

    Today, 21 May, Tuesday

    Time Temperature Precipitation Wind Pressure Humidity
    00:00 +17°C° 0 mm 5 mps 757 mmHg 59%
    01:00 +16°C° 0 mm 5 mps 757 mmHg 57%
    02:00 +15°C° 0 mm 5 mps 757 mmHg 57%
    03:00 +14°C° 0 mm 5 mps 757 mmHg 57%
    04:00 +14°C° 0 mm 5 mps 757 mmHg 57%
    05:00 +14°C° 0 mm 5 mps 758 mmHg 55%
    06:00 +14°C° 0 mm 5 mps 758 mmHg 53%
    07:00 +14°C° 0 mm 6 mps 759 mmHg 51%
    08:00 +15°C° 0 mm 6 mps 759 mmHg 46%
    09:00 +17°C° 0 mm 6 mps 759 mmHg 41%
    10:00 +19°C° 0 mm 5 mps 759 mmHg 36%
    11:00 +20°C° 0 mm 6 mps 758 mmHg 33%
    12:00 +22°C° 0 mm 6 mps 758 mmHg 31%
    13:00 +23°C° 0 mm 6 mps 758 mmHg 28%
    14:00 +23°C° 0 mm 6 mps 758 mmHg 27%
    15:00 +23°C° 0 mm 6 mps 758 mmHg 26%
    16:00 +23°C° 0 mm 7 mps 758 mmHg 25%
    17:00 +22°C° 0 mm 6 mps 759 mmHg 30%
    18:00 +21°C° 0 mm 6 mps 760 mmHg 34%
    19:00 +19°C° 0 mm 6 mps 761 mmHg 39%
    20:00 +19°C° 0 mm 6 mps 761 mmHg 41%
    21:00 +17°C° 0 mm 5 mps 762 mmHg 43%
    22:00 +16°C° 0 mm 5 mps 763 mmHg 45%
    23:00 +17°C° 0 mm 4 mps 763 mmHg 47%

    Tomorrow, 22 May, Wednesday

    Time Temperature Precipitation Wind Pressure Humidity
    00:00 +15°C° 0 mm 4 mps 763 mmHg 50%
    01:00 +15°C° 0 mm 4 mps 763 mmHg 53%
    02:00 +14°C° 0 mm 4 mps 764 mmHg 55%
    03:00 +14°C° 0 mm 3 mps 764 mmHg 57%
    04:00 +14°C° 0 mm 3 mps 764 mmHg 59%
    05:00 +14°C° 0 mm 4 mps 764 mmHg 54%
    06:00 +15°C° 0 mm 4 mps 765 mmHg 49%
    07:00 +17°C° 0 mm 4 mps 765 mmHg 44%
    08:00 +19°C° 0 mm 4 mps 765 mmHg 39%
    09:00 +20°C° 0 mm 4 mps 766 mmHg 34%
    10:00 +22°C° 0 mm 4 mps 766 mmHg 29%
    11:00 +24°C° 0 mm 3 mps 766 mmHg 26%
    12:00 +25°C° 0 mm 3 mps 765 mmHg 24%
    13:00 +26°C° 0 mm 3 mps 765 mmHg 22%
    14:00 +27°C° 0 mm 2 mps 765 mmHg 22%
    15:00 +27°C° 0 mm 2 mps 765 mmHg 22%
    16:00 +27°C° 0 mm 2 mps 765 mmHg 22%
    17:00 +26°C° 0 mm 2 mps 765 mmHg 25%
    18:00 +25°C° 0 mm 1 mps 765 mmHg 28%
    19:00 +24°C° 0 mm 1 mps 765 mmHg 31%
    20:00 +23°C° 0 mm 1 mps 766 mmHg 34%
    21:00 +22°C° 0 mm 1 mps 766 mmHg 38%
    22:00 +21°C° 0 mm 1 mps 766 mmHg 41%
    23:00 +21°C° 0 mm 1 mps 766 mmHg 42%

    Day after tomorrow, 23 May, Thursday

    Time Temperature Precipitation Wind Pressure Humidity
    00:00 +21°C° 0 mm 1 mps 766 mmHg 44%
    01:00 +18°C° 0 mm 0 mps 766 mmHg 46%
    02:00 +20°C° 0 mm 1 mps 766 mmHg 47%
    03:00 +20°C° 0 mm 1 mps 766 mmHg 47%
    04:00 +20°C° 0 mm 1 mps 766 mmHg 48%
    05:00 +20°C° 0.1 mm 1 mps 766 mmHg 52%
    06:00 +19°C° 0.1 mm 2 mps 766 mmHg 55%
    07:00 +18°C° 0.1 mm 2 mps 766 mmHg 58%
    08:00 +19°C° 0 mm 2 mps 766 mmHg 57%
    09:00 +19°C° 0 mm 3 mps 765 mmHg 55%
    10:00 +19°C° 0 mm 4 mps 765 mmHg 53%
    11:00 +21°C° 0 mm 4 mps 765 mmHg 51%
    12:00 +24°C° 0 mm 3 mps 764 mmHg 49%
    13:00 +25°C° 0 mm 3 mps 764 mmHg 47%
    14:00 +25°C° 0 mm 3 mps 763 mmHg 49%
    15:00 +26°C° 0 mm 4 mps 762 mmHg 50%
    16:00 +26°C° 0 mm 4 mps 761 mmHg 52%
    17:00 +25°C° 0.2 mm 4 mps 760 mmHg 58%
    18:00 +25°C° 0.2 mm 3 mps 760 mmHg 63%
    19:00 +24°C° 0.2 mm 3 mps 759 mmHg 69%
    20:00 +24°C° 1.1 mm 3 mps 759 mmHg 72%
    21:00 +22°C° 1.1 mm 3 mps 758 mmHg 76%
    22:00 +22°C° 1.1 mm 3 mps 758 mmHg 79%
    23:00 +22°C° 0.6 mm 3 mps 757 mmHg 81%

    24 May, Friday

    Time Temperature Precipitation Wind Pressure Humidity
    00:00 +22°C° 0.6 mm 3 mps 756 mmHg 82%
    01:00 +21°C° 0.6 mm 3 mps 756 mmHg 84%
    02:00 +21°C° 0 mm 4 mps 756 mmHg 81%
    03:00 +20°C° 0 mm 4 mps 756 mmHg 78%
    04:00 +20°C° 0 mm 5 mps 756 mmHg 76%
    05:00 +20°C° 0 mm 6 mps 756 mmHg 72%
    06:00 +20°C° 0 mm 6 mps 757 mmHg 69%
    07:00 +20°C° 0 mm 7 mps 758 mmHg 65%
    08:00 +21°C° 0 mm 7 mps 758 mmHg 60%
    09:00 +22°C° 0 mm 7 mps 758 mmHg 56%
    10:00 +23°C° 0 mm 7 mps 759 mmHg 51%
    11:00 +24°C° 0 mm 6 mps 759 mmHg 47%
    12:00 +27°C° 0 mm 6 mps 759 mmHg 43%
    13:00 +28°C° 0 mm 5 mps 759 mmHg 39%
    14:00 +27°C° 0 mm 5 mps 760 mmHg 41%
    15:00 +27°C° 0 mm 5 mps 760 mmHg 43%
    16:00 +26°C° 0 mm 5 mps 761 mmHg 45%
    17:00 +25°C° 0 mm 4 mps 762 mmHg 46%
    18:00 +23°C° 0 mm 4 mps 762 mmHg 48%
    19:00 +22°C° 0 mm 4 mps 763 mmHg 50%
    20:00 +21°C° 0 mm 4 mps 764 mmHg 52%
    21:00 +19°C° 0 mm 4 mps 764 mmHg 54%
    22:00 +18°C° 0 mm 4 mps 765 mmHg 56%
    23:00 +17°C° 0 mm 3 mps 765 mmHg 57%

    25 May, Saturday

    Time Temperature Precipitation Wind Pressure Humidity
    00:00 +16°C° 0 mm 3 mps 765 mmHg 59%
    01:00 +16°C° 0 mm 3 mps 765 mmHg 60%
    02:00 +15°C° 0 mm 2 mps 765 mmHg 60%
    03:00 +15°C° 0 mm 2 mps 765 mmHg 60%
    04:00 +14°C° 0 mm 1 mps 765 mmHg 60%
    05:00 +15°C° 0 mm 2 mps 765 mmHg 58%
    06:00 +15°C° 0 mm 2 mps 765 mmHg 56%
    07:00 +16°C° 0 mm 2 mps 765 mmHg 55%
    08:00 +17°C° 0 mm 2 mps 765 mmHg 51%
    09:00 +18°C° 0 mm 3 mps 765 mmHg 47%
    10:00 +20°C° 0 mm 3 mps 764 mmHg 43%
    11:00 +21°C° 0 mm 4 mps 764 mmHg 42%
    12:00 +21°C° 0 mm 4 mps 763 mmHg 42%
    13:00 +22°C° 0 mm 4 mps 763 mmHg 41%
    14:00 +22°C° 0 mm 4 mps 762 mmHg 44%
    15:00 +21°C° 0 mm 5 mps 762 mmHg 46%
    16:00 +21°C° 0 mm 5 mps 761 mmHg 48%
    17:00 +20°C° 0 mm 5 mps 761 mmHg 52%
    18:00 +20°C° 0 mm 4 mps 761 mmHg 55%
    19:00 +19°C° 0 mm 4 mps 761 mmHg 58%
    20:00 +19°C° 0.5 mm 4 mps 761 mmHg 64%
    21:00 +18°C° 0.5 mm 4 mps 761 mmHg 70%
    22:00 +18°C° 0.5 mm 4 mps 761 mmHg 76%
    23:00 +18°C° 0.5 mm 3 mps 760 mmHg 78%

    26 May, Sunday

    Time Temperature Precipitation Wind Pressure Humidity
    00:00 +17°C° 0.5 mm 3 mps 760 mmHg 80%
    01:00 +17°C° 0.5 mm 3 mps 760 mmHg 82%
    02:00 +17°C° 0 mm 3 mps 759 mmHg 83%
    03:00 +17°C° 0 mm 2 mps 759 mmHg 84%
    04:00 +17°C° 0 mm 2 mps 759 mmHg 86%
    05:00 +18°C° 0 mm 2 mps 759 mmHg 84%
    06:00 +19°C° 0 mm 2 mps 759 mmHg 82%
    07:00 +20°C° 0 mm 2 mps 759 mmHg 80%
    08:00 +21°C° 0 mm 2 mps 759 mmHg 75%
    09:00 +24°C° 0 mm 2 mps 759 mmHg 70%
    10:00 +26°C° 0 mm 1 mps 759 mmHg 65%
    11:00 +25°C° 0.7 mm 1 mps 759 mmHg 70%
    12:00 +24°C° 0.7 mm 1 mps 759 mmHg 75%
    13:00 +24°C° 0.7 mm 1 mps 759 mmHg 80%
    14:00 +24°C° 0.3 mm 1 mps 758 mmHg 78%
    15:00 +24°C° 0.3 mm 1 mps 758 mmHg 76%
    16:00 +24°C° 0.3 mm 1 mps 758 mmHg 75%
    17:00 +24°C° 0 mm 1 mps 759 mmHg 72%
    18:00 +22°C° 0 mm 0 mps 759 mmHg 70%
    19:00 +22°C° 0 mm 0 mps 759 mmHg 68%
    20:00 +21°C° 0 mm 0 mps 759 mmHg 70%
    21:00 +21°C° 0 mm 0 mps 759 mmHg 72%
    22:00 +20°C° 0 mm 0 mps 759 mmHg 74%
    23:00 +20°C° 0 mm 0 mps 759 mmHg 75%
    Show more